Regional Weather Roundup
Issued by NWS Albany, NY

Home | Current Version | Previous Version | Text Only | Print | Product List | Glossary On
Versions: 1 2 3 4 5 6 7 8 9 10 11 12 13 14 15 16 17 18 19 20 21 22 23 24 25 26 27 28 29 30 31 32 33 34 35 36 37 38 39 40 41 42 43 44 45 46 47 48 49 50
000
ASUS41 KALY 261810
RWRALY

NEW YORK STATE HOURLY WEATHER ROUNDUP
NATIONAL WEATHER SERVICE ALBANY NY
200 PM EDT TUE MAY 26 2015

NOTE: "FAIR" INDICATES FEW OR NO CLOUDS BELOW 12,000 FEET WITH NO
SIGNIFICANT WEATHER AND/OR NO OBSTRUCTIONS TO VISIBILITY.

NYZ032-033-038>043-046>054-057>066-NYZ062>081-261900-
EAST


CITY           SKY/WX    TMP DP  RH WIND       PRES   REMARKS
ALBANY         PTSUNNY   85  63  47 S14G21    30.11F
GLENS FALLS    PTSUNNY   86  61  42 SW13G22   30.07F
POUGHKEEPSIE   PTSUNNY   86  63  45 VRB5      30.14F
MONTGOMERY     MOSUNNY   87  66  49 S8        30.15F
WHITE PLAINS   MOSUNNY   82  61  48 S9        30.18F
ISLIP          PTSUNNY   74  61  63 S13       30.19F
NEW YORK CITY  PTSUNNY   85  60  42 S14G21    30.17F
CENTRAL PARK   SUNNY     87  61  41 VRB3      30.19F
$$

NYZ005>009-017-018-044>046-055-056-261900-
CENTRAL


CITY           SKY/WX    TMP DP  RH WIND       PRES   REMARKS
FULTON         PTSUNNY   83  66  56 S8        30.09F
SYRACUSE       CLOUDY    83  64  52 SW14G22   30.10F
ROME           PTSUNNY   82  63  52 SW12      30.11F
ELMIRA         CLOUDY    79  65  62 W7        30.15F
BINGHAMTON     LGT RAIN  75  63  66 W7        30.19F
MONTICELLO     PTSUNNY   81  63  54 W7        30.21F
$$

NYZ026>034-041>043-261900-
NORTH


CITY           SKY/WX    TMP DP  RH WIND       PRES   REMARKS
WATERTOWN      SUNNY     79  64  60 W15       30.08S
FORT DRUM      NOT AVBL
MASSENA        MOSUNNY   83  62  49 SW16G25   30.03S
SARANAC LAKE   MOSUNNY   79  57  46 W15G24    30.10F
PLATTSBURGH    MOSUNNY   85  59  41 SW8       30.01F
$$

NYZ001>004-010>016-019>021-261900-
WEST


CITY           SKY/WX    TMP DP  RH WIND       PRES   REMARKS
NIAGARA FALLS  CLOUDY    79  64  60 SW15      30.07F
BUFFALO        PTSUNNY   78  62  57 SW13      30.09F
DUNKIRK        CLOUDY    73  63  70 W9        30.10F
JAMESTOWN      PTSUNNY   75  63  64 S14G21    30.15F
WELLSVILLE     PTSUNNY   75  63  66 S9G22     30.20F
ROCHESTER      PTSUNNY   80  66  62 SW13      30.09F
PENN YAN       PTSUNNY   78  64  61 S9        30.14F
$$

             KEY
       WCI = WIND CHILL INDEX
       VSB = VISIBILITY
       HX  = HEAT INDEX
$$


USA.gov is the U.S. government's official web portal to all federal, state and local government web resources and services.